Regional Weather Roundup
Issued by NWS

Home | Current Version | Previous Version | Graphics & Text | Print | Product List | Glossary On
Versions: 1 2 3 4 5 6 7 8 9 10 11 12 13 14 15 16 17 18 19 20 21 22 23 24 25 26 27 28 29 30 31 32 33 34 35 36 37 38 39 40 41 42 43 44 45 46 47 48 49 50
446
ASUS43 KTOP 270908
RWRKS

WEATHER ROUNDUP FOR KANSAS
NATIONAL WEATHER SERVICE GOODLAND KS
400 AM CDT WED JUL 27 2016

NOTE:  "FAIR" INDICATES FEW OR NO CLOUDS BELOW 12,000 FEET WITH NO
SIGNIFICANT WEATHER AND/OR OBSTRUCTIONS TO VISIBILITY.

KSZ001>006-013>018-027>032-041>047-271000-
NORTHWEST KANSAS

CITY           SKY/WX    TMP DP  RH WIND       PRES   REMARKS
GOODLAND       CLOUDY    69  58  67 NE12      30.10R
HAYS           CLOUDY    73  64  73 NE9       30.03S
HILL CITY      LGT RAIN  65  62  90 E17G25    30.09R
RUSSELL        CLOUDY    73  70  90 SE7       30.00S
$$

KSZ061>065-074>080-084>089-271000-
SOUTHWEST KANSAS

CITY           SKY/WX    TMP DP  RH WIND       PRES   REMARKS
DODGE CITY     MOCLDY    69  67  93 S5        30.03R
ELKHART          N/A     68  63  84 N2          N/A
GARDEN CITY    CLOUDY    70  67  90 SE6       30.03S
GREAT BEND     MOCLDY    73  64  73 SE9       30.00F
LIBERAL        CLEAR     70  63  78 SW3       30.05F
PRATT          CLEAR     69  67  93 E3        30.02S
$$

KSZ066>073-081>083-090>101-271000-
SOUTHEAST KANSAS

CITY           SKY/WX    TMP DP  RH WIND       PRES   REMARKS
CHANUTE        CLEAR     72  71  97 CALM      29.98R
COFFEYVILLE    CLEAR     72  71  97 N3        29.97R
HUTCHINSON     PTCLDY    73  70  90 N5        30.01R
NEWTON         CLEAR     71  71 100 NE5       30.01S
PARSONS        CLEAR     72  71  97 CALM      29.98R
WICHITA INTL   PTCLDY    76  71  85 NE5       29.98R
WICHITA JABRA  CLEAR     71  71 100 N5        29.99R
WICHITA MCCONL CLEAR     73  71  92 E3        29.99R
WINFIELD       CLEAR     74  72  93 N3        29.98R
$$

KSZ007>012-019>026-033>040-048>060-102>105-271000-
NORTHEAST KANSAS

CITY           SKY/WX    TMP DP  RH WIND       PRES   REMARKS
CONCORDIA      CLOUDY    69  67  93 N6        30.06R
EMPORIA        PTCLDY    70  69  97 CALM      30.01R
LAWRENCE       CLOUDY    70  68  93 CALM      30.00R
MANHATTAN      CLEAR     69  67  93 CALM      30.01R
MARYSVILLE     MOCLDY    66  64  94 NW5       30.06R
OLATHE IND     MOCLDY    72  68  87 NE5       30.01R
SALINA         CLOUDY    75  68  78 E3        30.00F
TOPEKA BILLARD PTCLDY    70  67  90 CALM      30.00R
TOPEKA FORBES  CLEAR     71  68  90 CALM      30.00R
$$




USA.gov is the U.S. government's official web portal to all federal, state and local government web resources and services.